Time,TemperatureF,DewpointF,PressureIn,WindDirection,WindDirectionDegrees,WindSpeedMPH,WindSpeedGustMPH,Humidity,HourlyPrecipIn,Conditions,Clouds,dailyrainin,SoftwareType,DateUTC
2013-04-15 00:09:00,61.2,47.2,29.58,SSE,157,9.4,-999.0,60,-99.99,,,0.00,Acu-Link.com,2013-04-15 04:09:00,
2013-04-15 00:24:00,61.2,47.6,29.58,SSE,157,13.5,-999.0,61,-99.99,,,0.00,Acu-Link.com,2013-04-15 04:24:00,
2013-04-15 00:39:00,61.3,47.3,29.59,SSW,202,10.9,-999.0,60,-99.99,,,0.00,Acu-Link.com,2013-04-15 04:39:00,
2013-04-15 00:54:00,61.0,47.5,29.60,SE,135,8.3,-999.0,61,-99.99,,,0.00,Acu-Link.com,2013-04-15 04:54:00,
2013-04-15 01:10:00,61.0,47.5,29.59,SSW,202,9.9,-999.0,61,-99.99,,,0.00,Acu-Link.com,2013-04-15 05:10:00,
2013-04-15 01:25:00,60.1,47.0,29.60,South,180,10.9,-999.0,62,-99.99,,,0.00,Acu-Link.com,2013-04-15 05:25:00,
2013-04-15 01:40:00,59.5,47.3,29.60,South,180,11.4,-999.0,64,-99.99,,,0.00,Acu-Link.com,2013-04-15 05:40:00,
2013-04-15 01:55:00,59.7,47.5,29.59,SSE,157,10.4,-999.0,64,-99.99,,,0.00,Acu-Link.com,2013-04-15 05:55:00,
2013-04-15 02:10:00,59.5,47.7,29.59,South,180,13.0,-999.0,65,-99.99,,,0.00,Acu-Link.com,2013-04-15 06:10:00,
2013-04-15 02:25:00,59.2,47.8,29.59,South,180,13.0,-999.0,66,-99.99,,,0.00,Acu-Link.com,2013-04-15 06:25:00,
2013-04-15 02:41:00,58.8,48.3,29.59,SSW,202,11.4,-999.0,68,-99.99,,,0.00,Acu-Link.com,2013-04-15 06:41:00,
2013-04-15 02:56:00,58.3,48.2,29.60,SE,135,11.9,-999.0,69,-99.99,,,0.00,Acu-Link.com,2013-04-15 06:56:00,
2013-04-15 03:41:00,57.4,48.8,29.62,SSW,202,7.8,-999.0,73,-99.99,,,0.00,Acu-Link.com,2013-04-15 07:41:00,
2013-04-15 03:56:00,57.7,49.1,29.63,South,180,10.4,-999.0,73,-99.99,,,0.00,Acu-Link.com,2013-04-15 07:56:00,
2013-04-15 04:27:00,57.9,49.3,29.64,SSW,202,8.3,-999.0,73,-99.99,,,0.00,Acu-Link.com,2013-04-15 08:27:00,
2013-04-15 04:42:00,57.6,49.4,29.64,South,180,8.3,-999.0,74,-99.99,,,0.00,Acu-Link.com,2013-04-15 08:42:00,
2013-04-15 04:58:00,56.5,49.0,29.64,South,180,8.3,-999.0,76,-99.99,,,0.00,Acu-Link.com,2013-04-15 08:58:00,
2013-04-15 05:13:00,55.9,49.1,29.64,South,180,6.3,-999.0,78,-99.99,,,0.00,Acu-Link.com,2013-04-15 09:13:00,
2013-04-15 05:28:00,55.4,49.0,29.63,South,180,4.7,-999.0,79,-99.99,,,0.00,Acu-Link.com,2013-04-15 09:28:00,
2013-04-15 05:43:00,55.0,48.9,29.64,South,180,5.8,-999.0,80,-99.99,,,0.00,Acu-Link.com,2013-04-15 09:43:00,
2013-04-15 05:58:00,54.9,49.2,29.63,SSE,157,7.3,-999.0,81,-99.99,,,0.00,Acu-Link.com,2013-04-15 09:58:00,
2013-04-15 06:13:00,54.9,49.2,29.63,SSE,157,6.8,-999.0,81,-99.99,,,0.00,Acu-Link.com,2013-04-15 10:13:00,
2013-04-15 06:28:00,55.2,49.5,29.63,SSE,157,8.9,-999.0,81,-99.99,,,0.00,Acu-Link.com,2013-04-15 10:28:00,
2013-04-15 06:44:00,54.9,49.2,29.63,South,180,6.8,-999.0,81,-99.99,,,0.00,Acu-Link.com,2013-04-15 10:44:00,
2013-04-15 06:59:00,54.3,48.9,29.64,South,180,10.4,-999.0,82,-99.99,,,0.00,Acu-Link.com,2013-04-15 10:59:00,
2013-04-15 07:29:00,53.8,49.1,29.65,SSE,157,4.2,-999.0,84,-99.99,,,0.00,Acu-Link.com,2013-04-15 11:29:00,
2013-04-15 07:44:00,54.1,49.4,29.66,SW,225,4.2,-999.0,84,-99.99,,,0.00,Acu-Link.com,2013-04-15 11:44:00,
2013-04-15 08:14:00,55.0,50.3,29.68,South,180,6.8,-999.0,84,-99.99,,,0.00,Acu-Link.com,2013-04-15 12:14:00,
2013-04-15 08:30:00,55.6,50.5,29.67,South,180,8.3,-999.0,83,-99.99,,,0.00,Acu-Link.com,2013-04-15 12:30:00,
2013-04-15 08:45:00,56.3,50.9,29.68,SSE,157,7.8,-999.0,82,-99.99,,,0.00,Acu-Link.com,2013-04-15 12:45:00,
2013-04-15 09:15:00,57.4,51.6,29.67,South,180,7.3,-999.0,81,-99.99,,,0.00,Acu-Link.com,2013-04-15 13:15:00,
2013-04-15 09:30:00,58.3,52.2,29.69,SSE,157,8.3,-999.0,80,-99.99,,,0.00,Acu-Link.com,2013-04-15 13:30:00,
2013-04-15 10:01:00,58.5,52.4,29.69,SE,135,7.3,-999.0,80,-99.99,,,0.00,Acu-Link.com,2013-04-15 14:01:00,
2013-04-15 10:32:00,59.4,52.9,29.69,South,180,9.9,-999.0,79,-99.99,,,0.00,Acu-Link.com,2013-04-15 14:32:00,
2013-04-15 10:47:00,60.1,53.2,29.69,South,180,7.3,-999.0,78,-99.99,,,0.00,Acu-Link.com,2013-04-15 14:47:00,
2013-04-15 11:02:00,63.3,55.6,29.69,SSE,157,9.4,-999.0,76,-99.99,,,0.00,Acu-Link.com,2013-04-15 15:02:00,
2013-04-15 11:17:00,61.3,54.0,29.69,SSW,202,11.9,-999.0,77,-99.99,,,0.00,Acu-Link.com,2013-04-15 15:17:00,
2013-04-15 11:32:00,61.7,54.4,29.69,SSW,202,10.4,-999.0,77,-99.99,,,0.00,Acu-Link.com,2013-04-15 15:32:00,
2013-04-15 11:47:00,61.9,54.6,29.70,South,180,13.0,-999.0,77,-99.99,,,0.00,Acu-Link.com,2013-04-15 15:47:00,
2013-04-15 12:03:00,62.4,55.1,29.70,South,180,10.9,-999.0,77,-99.99,,,0.00,Acu-Link.com,2013-04-15 16:03:00,
2013-04-15 12:18:00,63.0,55.3,29.70,SSW,202,13.0,-999.0,76,-99.99,,,0.00,Acu-Link.com,2013-04-15 16:18:00,
2013-04-15 12:33:00,62.8,55.1,29.70,SSW,202,14.5,-999.0,76,-99.99,,,0.00,Acu-Link.com,2013-04-15 16:33:00,
2013-04-15 12:48:00,62.4,55.1,29.71,SSW,202,11.4,-999.0,77,-99.99,,,0.00,Acu-Link.com,2013-04-15 16:48:00,
2013-04-15 13:03:00,62.4,55.4,29.71,SW,225,7.8,-999.0,78,-99.99,,,0.00,Acu-Link.com,2013-04-15 17:03:00,
2013-04-15 13:18:00,63.0,56.0,29.70,SSW,202,9.4,-999.0,78,-99.99,,,0.00,Acu-Link.com,2013-04-15 17:18:00,
2013-04-15 13:33:00,63.3,56.0,29.70,SSW,202,11.4,-999.0,77,-99.99,,,0.00,Acu-Link.com,2013-04-15 17:33:00,
2013-04-15 13:48:00,62.8,55.8,29.69,SSE,157,11.9,-999.0,78,-99.99,,,0.00,Acu-Link.com,2013-04-15 17:48:00,
2013-04-15 14:03:00,63.0,56.0,29.68,South,180,11.9,-999.0,78,-99.99,,,0.00,Acu-Link.com,2013-04-15 18:03:00,
2013-04-15 14:18:00,62.8,55.8,29.67,SSE,157,8.9,-999.0,78,-99.99,,,0.00,Acu-Link.com,2013-04-15 18:18:00,
2013-04-15 14:33:00,62.8,55.8,29.69,SSW,202,12.5,-999.0,78,-99.99,,,0.00,Acu-Link.com,2013-04-15 18:33:00,
2013-04-15 14:48:00,65.8,57.3,29.66,SE,135,11.9,-999.0,74,-99.99,,,0.00,Acu-Link.com,2013-04-15 18:48:00,
2013-04-15 15:03:00,64.8,56.7,29.66,SSE,157,9.4,-999.0,75,-99.99,,,0.00,Acu-Link.com,2013-04-15 19:03:00,
2013-04-15 15:18:00,64.9,56.8,29.66,South,180,8.3,-999.0,75,-99.99,,,0.00,Acu-Link.com,2013-04-15 19:18:00,
2013-04-15 15:34:00,66.0,57.1,29.67,South,180,8.3,-999.0,73,-99.99,,,0.00,Acu-Link.com,2013-04-15 19:34:00,
2013-04-15 16:04:00,64.9,56.8,29.70,SSW,202,9.9,-999.0,75,-99.99,,,0.00,Acu-Link.com,2013-04-15 20:04:00,
2013-04-15 16:19:00,64.9,57.1,29.70,SSW,202,10.9,-999.0,76,-99.99,,,0.00,Acu-Link.com,2013-04-15 20:19:00,
2013-04-15 16:34:00,64.6,57.6,29.65,SSE,157,7.8,-999.0,78,-99.99,,,0.00,Acu-Link.com,2013-04-15 20:34:00,
2013-04-15 16:49:00,65.5,58.1,29.66,SSW,202,5.3,-999.0,77,-99.99,,,0.00,Acu-Link.com,2013-04-15 20:49:00,
2013-04-15 17:05:00,65.5,57.7,29.66,SW,225,12.5,-999.0,76,-99.99,,,0.00,Acu-Link.com,2013-04-15 21:05:00,
2013-04-15 17:20:00,64.9,57.5,29.61,SSE,157,9.4,-999.0,77,-99.99,,,0.00,Acu-Link.com,2013-04-15 21:20:00,
2013-04-15 17:35:00,66.7,58.5,29.63,SSW,202,5.8,-999.0,75,-99.99,,,0.00,Acu-Link.com,2013-04-15 21:35:00,
2013-04-15 17:50:00,66.0,58.2,29.65,SSE,157,10.4,-999.0,76,-99.99,,,0.00,Acu-Link.com,2013-04-15 21:50:00,
2013-04-15 18:05:00,65.8,58.7,29.63,SSE,157,8.3,-999.0,78,-99.99,,,0.00,Acu-Link.com,2013-04-15 22:05:00,
2013-04-15 18:20:00,66.2,58.8,29.62,SSE,157,5.3,-999.0,77,-99.99,,,0.00,Acu-Link.com,2013-04-15 22:20:00,
2013-04-15 18:35:00,67.5,58.5,29.63,SSE,157,11.4,-999.0,73,-99.99,,,0.00,Acu-Link.com,2013-04-15 22:35:00,
2013-04-15 18:50:00,67.8,58.4,29.64,SSE,157,7.8,-999.0,72,-99.99,,,0.00,Acu-Link.com,2013-04-15 22:50:00,
2013-04-15 19:05:00,67.8,58.8,29.63,SSE,157,9.4,-999.0,73,-99.99,,,0.00,Acu-Link.com,2013-04-15 23:05:00,
2013-04-15 19:21:00,68.4,58.6,29.63,SSE,157,13.5,-999.0,71,-99.99,,,0.00,Acu-Link.com,2013-04-15 23:21:00,
2013-04-15 19:36:00,68.4,58.6,29.62,South,180,8.3,-999.0,71,-99.99,,,0.00,Acu-Link.com,2013-04-15 23:36:00,
2013-04-15 19:51:00,67.8,58.0,29.62,SSW,202,7.8,-999.0,71,-99.99,,,0.00,Acu-Link.com,2013-04-15 23:51:00,
2013-04-15 20:06:00,67.5,58.1,29.63,SE,135,7.8,-999.0,72,-99.99,,,0.00,Acu-Link.com,2013-04-16 00:06:00,
2013-04-15 20:21:00,67.3,58.0,29.63,South,180,7.8,-999.0,72,-99.99,,,0.00,Acu-Link.com,2013-04-16 00:21:00,
2013-04-15 20:36:00,66.6,57.7,29.64,SSE,157,6.8,-999.0,73,-99.99,,,0.00,Acu-Link.com,2013-04-16 00:36:00,
2013-04-15 20:52:00,66.2,57.3,29.64,South,180,6.3,-999.0,73,-99.99,,,0.00,Acu-Link.com,2013-04-16 00:52:00,
2013-04-15 21:07:00,66.0,57.5,29.65,South,180,7.3,-999.0,74,-99.99,,,0.00,Acu-Link.com,2013-04-16 01:07:00,
2013-04-15 21:23:00,65.8,57.3,29.65,SSE,157,8.3,-999.0,74,-99.99,,,0.00,Acu-Link.com,2013-04-16 01:23:00,
2013-04-15 21:38:00,65.7,57.2,29.65,South,180,6.8,-999.0,74,-99.99,,,0.00,Acu-Link.com,2013-04-16 01:38:00,
2013-04-15 21:53:00,65.7,57.2,29.65,South,180,9.4,-999.0,74,-99.99,,,0.00,Acu-Link.com,2013-04-16 01:53:00,
2013-04-15 22:08:00,64.9,56.8,29.66,SSE,157,11.9,-999.0,75,-99.99,,,0.00,Acu-Link.com,2013-04-16 02:08:00,
2013-04-15 22:23:00,64.9,56.8,29.67,South,180,11.9,-999.0,75,-99.99,,,0.00,Acu-Link.com,2013-04-16 02:23:00,
2013-04-15 22:38:00,64.6,56.9,29.68,SE,135,6.3,-999.0,76,-99.99,,,0.00,Acu-Link.com,2013-04-16 02:38:00,
2013-04-15 22:53:00,64.6,56.9,29.68,SSW,202,9.4,-999.0,76,-99.99,,,0.00,Acu-Link.com,2013-04-16 02:53:00,
2013-04-15 23:08:00,64.2,56.8,29.68,SSE,157,10.9,-999.0,77,-99.99,,,0.00,Acu-Link.com,2013-04-16 03:08:00,
2013-04-15 23:24:00,64.0,56.6,29.68,SE,135,11.4,-999.0,77,-99.99,,,0.00,Acu-Link.com,2013-04-16 03:24:00,
2013-04-15 23:39:00,63.5,56.5,29.67,SSE,157,10.9,-999.0,78,-99.99,,,0.00,Acu-Link.com,2013-04-16 03:39:00,
2013-04-15 23:54:00,63.0,56.4,29.67,South,180,9.4,-999.0,79,-99.99,,,0.00,Acu-Link.com,2013-04-16 03:54:00,